User: anonymous   Login
Location: Claremont
(33.9858°S, 18.4575°E)
Time: 23:44:19
(UTC+00:00)
Language:

Cosmos 1743 - Orbit

View from above orbital plane
View from above orbital plane
View from above satellite
View from above satellite

Ground track
Ground track

The orbit data is extracted from the following two-line orbital elements,

1 16719U 86034A   21127.84631079  .00000754  00000-0  37482-4 0  9990
2 16719  82.5549  39.3443 0013117  45.1950  19.0932 15.16025404910868
Epoch (UTC): 07 May 2021 20:18:41
Eccentricity: 0.0013117
inclination: 82.5549°
perigee height: 509 km
apogee height: 527 km
right ascension of ascending node: 39.3443°
argument of perigee: 45.1950°
revolutions per day: 15.16025404
mean anomaly at epoch: 19.0932°
orbit number at epoch: 91086

The dashed part of the orbit path shows where the satellite is in the earth's shadow,  

DLR